This is the latest recevied weather packets stored in our database for station/object DC9VQ-13. If no packets are shown the sender has not sent any weather packets the latest 10 day(s).
| Time | Temp. | Humidity | Pressure | Rain* | Wind** | Luminosity | Snow |
|---|---|---|---|---|---|---|---|
| 1788207168 | 17.22° C | 88% | 1018.1 hPa | 0 mm | - | - | - |
| 1788206566 | 17.22° C | 88% | 1018.2 hPa | 0 mm | - | - | - |
| 1788205964 | 17.22° C | 88% | 1018.1 hPa | 0 mm | - | - | - |
| 1788205362 | 17.22° C | 87% | 1018 hPa | 0 mm | - | - | - |
| 1788204760 | 17.22° C | 87% | 1017.9 hPa | 0 mm | - | - | - |
| 1788204158 | 17.78° C | 86% | 1017.7 hPa | 0 mm | - | - | - |
| 1788203556 | 17.78° C | 86% | 1017.6 hPa | 0.51 mm | - | - | - |
| 1788202954 | 17.78° C | 85% | 1017.5 hPa | 0.76 mm | - | - | - |
| 1788202352 | 17.78° C | 84% | 1017.4 hPa | 0.76 mm | - | - | - |
| 1788201751 | 18.33° C | 83% | 1017.1 hPa | 6.86 mm | - | - | - |
| 1788201148 | 18.33° C | 83% | 1017 hPa | 7.11 mm | - | - | - |
| 1788200546 | 18.33° C | 83% | 1017 hPa | 7.11 mm | - | - | - |
| 1788199944 | 18.89° C | 81% | 1016.8 hPa | 6.6 mm | - | - | - |
| 1788199342 | 19.44° C | 80% | 1016.6 hPa | 6.35 mm | - | - | - |
| 1788198740 | 20° C | 79% | 1016.4 hPa | 6.35 mm | - | - | - |
| 1788198138 | 21.11° C | 68% | 1016.3 hPa | 0.25 mm | - | - | - |
| 1788197536 | 21.67° C | 67% | 1015.8 hPa | 0 mm | - | - | - |
| 1788196941 | 21.67° C | 66% | 1015.7 hPa | 0 mm | - | - | - |
| 1788196332 | 22.22° C | 66% | 1015.7 hPa | 0 mm | - | - | - |
| 1788195730 | 22.78° C | 67% | 1015.6 hPa | 0 mm | - | - | - |
| 1788195128 | 22.78° C | 66% | 1015.6 hPa | 0 mm | - | - | - |
| 1788194525 | 22.78° C | 69% | 1015.4 hPa | 0 mm | - | - | - |
| 1788193924 | 22.78° C | 71% | 1015.3 hPa | 0 mm | - | - | - |
| 1788193322 | 22.22° C | 74% | 1015.2 hPa | 0 mm | - | - | - |
| 1788192720 | 21.67° C | 74% | 1015.2 hPa | 0 mm | - | - | - |
* Rain latest hour (hover to see other rain measurements)
** Current wind speed in m/s (hover to see current wind gust speed)